Theta_e
342 342 341 342 342 341 340 340 341 341 340 339 339 339 339 339 339 339 340 340 339 339 339 339 339 339 338 337 336 335 334 333 333 333 332 332 331 330 329 329 329 328 328 328 329 328 326 324 320 318 317 315 315 313 311 310 309 309 309 308 308 308 308
342 342 342 342 342 342 341 341 341 340 340 339 339 339 339 339 339 339 340 340 339 339 339 338 338 338 337 337 335 334 334 334 333 332 332 331 331 330 329 328 328 328 328 328 328 328 328 328 324 320 318 317 316 314 313 311 310 310 309 307 308 308 308
342 342 342 342 343 342 342 342 341 340 339 339 339 339 339 339 339 339 340 339 339 339 338 337 338 337 336 335 335 334 334 334 333 332 332 332 331 331 331 330 329 329 328 328 328 327 328 328 326 323 321 320 318 316 314 312 310 309 309 308 308 307 308
343 342 343 344 343 342 342 342 341 340 339 338 339 339 339 339 339 339 340 340 339 339 338 337 337 337 335 334 334 334 333 333 333 332 332 332 331 331 331 331 330 329 329 328 328 328 327 328 327 325 323 322 320 319 315 312 310 309 309 308 308 307 308
344 343 344 344 343 342 343 342 342 341 339 338 339 339 339 339 339 339 339 339 339 339 338 337 336 336 335 334 334 334 333 333 333 333 332 333 332 331 331 330 330 329 329 328 328 328 328 327 327 326 324 322 320 319 315 313 311 310 309 308 307 307 307
344 344 343 344 343 343 342 343 342 341 339 339 339 339 339 340 339 339 339 339 339 338 338 337 336 335 335 335 334 333 333 333 333 332 332 332 332 331 331 330 330 329 329 328 328 328 328 327 327 325 323 321 320 318 314 313 311 309 309 308 307 307 307
344 344 343 342 343 342 342 343 342 341 339 339 339 339 339 339 339 339 339 339 339 338 337 336 335 335 334 334 333 333 332 331 331 331 331 331 331 331 331 330 330 330 329 328 328 328 327 327 326 324 323 321 321 319 314 312 311 309 309 308 307 306 306
345 344 343 342 342 342 342 342 342 341 340 340 340 339 339 339 339 339 339 340 339 337 337 336 335 334 334 333 332 332 331 330 329 329 329 329 330 330 330 330 330 329 329 328 328 328 327 326 324 323 323 321 320 319 316 313 310 310 309 307 306 306 306
345 345 344 342 342 342 342 342 342 340 340 340 339 339 339 339 338 339 340 339 338 337 336 335 335 334 333 332 331 330 330 329 328 328 328 328 328 329 328 328 328 327 327 327 326 326 325 324 323 322 323 321 319 318 316 314 311 311 309 307 306 305 306
346 346 345 343 342 343 342 341 341 340 340 340 340 339 339 339 338 339 339 338 337 337 336 335 335 333 332 330 329 329 328 327 326 327 327 327 327 327 327 327 326 326 326 325 325 324 323 322 321 320 321 320 318 317 316 314 313 312 310 308 307 306 305
346 346 346 344 343 343 342 342 341 341 340 340 340 340 339 338 338 339 339 338 337 336 335 335 333 332 330 329 328 327 327 326 325 325 325 324 325 325 325 325 324 324 323 322 321 320 320 319 318 317 318 317 316 316 316 315 314 314 311 309 309 307 304
346 346 346 344 343 343 342 342 342 341 341 341 341 340 339 338 338 338 338 337 336 336 335 334 332 330 328 328 328 327 326 324 324 324 323 322 323 322 322 322 321 321 319 318 317 317 316 316 315 315 315 315 316 316 316 315 315 315 313 310 308 306 304
346 346 345 344 344 343 342 342 342 342 341 341 341 340 339 339 338 338 338 336 336 335 334 332 330 329 327 327 327 326 325 323 322 322 321 320 320 320 320 320 319 318 317 315 315 314 314 314 314 313 313 314 315 315 315 315 315 315 313 310 307 305 304
346 346 345 344 344 343 342 341 341 342 342 341 341 340 339 339 338 338 337 336 335 334 333 331 329 328 327 326 326 325 323 322 321 321 320 319 318 318 318 318 317 316 315 314 314 312 312 311 311 311 312 312 312 312 313 313 313 315 312 309 307 304 304
346 346 345 345 344 343 342 341 341 342 342 341 341 340 339 338 338 337 337 335 334 333 332 330 328 327 326 326 325 323 322 321 320 320 319 317 317 317 317 316 315 315 314 313 312 311 310 309 308 308 308 309 310 311 311 311 312 314 312 308 307 305 303
346 346 345 345 344 343 342 341 341 341 341 341 341 340 339 338 337 337 336 335 334 333 331 329 327 326 325 325 323 322 321 320 319 319 318 316 316 316 316 315 315 314 313 312 311 309 309 308 307 307 307 308 309 310 311 310 311 313 311 308 306 305 304
345 345 345 345 344 343 342 341 341 341 341 341 340 340 339 337 337 336 335 334 333 332 330 328 327 325 324 324 322 321 320 320 319 318 317 315 315 315 315 315 314 313 312 311 311 309 309 308 306 307 307 307 310 311 311 310 311 310 310 308 305 305 305
345 345 345 344 343 342 342 342 341 340 340 340 340 339 338 337 336 335 334 333 332 331 329 327 326 324 323 322 321 321 320 319 318 317 316 315 314 314 314 314 314 312 311 311 310 309 308 307 307 306 305 306 309 309 308 309 309 308 307 307 305 305 305
344 345 345 344 343 342 342 341 340 339 340 340 339 338 337 336 335 335 334 333 332 330 328 327 325 324 323 321 320 320 320 319 318 316 315 315 314 314 314 314 313 311 311 311 310 309 308 308 307 306 305 306 305 304 305 307 306 305 306 306 306 305 304
343 344 344 344 343 342 341 341 340 339 339 340 339 337 336 335 334 334 333 332 331 330 328 326 324 323 322 321 320 320 319 318 316 315 314 314 313 313 313 313 312 311 310 310 310 309 308 308 307 306 306 306 302 301 304 306 304 305 306 306 305 305 305
343 343 344 343 343 342 341 340 339 338 339 339 338 337 336 334 333 333 332 331 330 329 327 325 324 322 321 320 320 320 319 317 316 314 314 313 313 313 312 312 311 310 309 310 309 308 308 307 307 306 306 305 303 302 304 305 304 305 305 305 305 305 305
343 343 343 342 342 341 341 340 339 338 339 339 338 337 335 334 333 332 331 330 328 327 325 325 325 324 321 319 320 320 319 317 315 314 313 312 312 312 311 311 310 309 309 309 308 307 307 306 306 306 305 304 304 305 305 304 304 305 304 304 305 305 305
343 342 342 342 342 341 340 339 338 338 338 338 337 336 335 333 332 332 330 328 327 325 325 326 328 326 322 319 320 320 318 316 314 313 313 312 312 311 311 310 309 308 307 306 304 303 303 301 303 305 305 304 304 305 305 305 304 304 304 305 305 306 305
342 342 342 342 341 340 340 339 338 338 338 337 337 335 334 333 332 331 329 327 326 325 326 327 330 328 323 320 320 319 318 316 314 313 312 312 312 311 310 310 309 307 305 303 302 302 301 301 301 303 302 303 305 306 305 305 305 305 305 305 305 306 305
342 342 341 342 341 340 339 338 338 338 337 337 336 335 333 333 331 330 328 327 326 326 326 328 330 328 322 320 319 319 317 315 313 312 312 312 311 310 310 310 309 306 304 304 303 302 302 301 302 302 300 299 302 304 305 305 305 305 304 305 306 306 305
341 341 341 341 340 339 338 337 337 337 337 337 335 334 333 332 331 329 328 327 326 325 326 328 330 327 322 319 319 318 317 315 313 312 311 311 310 310 310 309 309 307 305 304 304 303 303 302 302 301 299 296 297 299 300 303 304 304 305 306 306 305 305
341 341 340 340 339 338 337 337 337 337 337 336 335 334 333 331 330 329 328 327 326 325 325 327 329 326 321 319 319 318 316 314 312 311 311 310 310 310 310 309 309 308 308 306 304 305 304 302 301 300 298 298 298 298 297 299 301 301 303 306 306 306 305
341 340 339 339 338 337 337 336 337 337 337 336 335 334 332 330 329 329 328 327 325 324 325 327 328 326 321 319 319 317 315 313 312 311 311 310 311 310 309 309 309 309 309 307 305 305 306 304 302 301 300 301 302 301 300 299 300 300 301 303 305 306 305
340 340 339 338 338 337 336 336 336 337 337 335 334 334 332 329 328 328 327 326 325 324 324 327 329 326 321 318 317 316 314 313 312 311 311 311 311 310 309 309 309 309 310 308 306 305 306 305 303 302 302 303 303 303 303 302 301 301 301 302 303 305 305
341 340 338 337 337 336 336 336 337 336 336 336 334 332 331 329 328 327 326 325 324 323 323 326 328 325 321 318 315 313 313 313 312 311 311 311 310 310 310 308 308 309 310 308 306 305 305 304 304 303 303 304 304 304 305 304 302 300 300 300 301 303 304
340 339 338 337 336 336 336 336 336 335 335 336 334 332 330 329 328 326 325 324 324 323 324 325 326 325 321 317 314 313 313 312 311 311 311 311 310 310 309 308 308 309 309 308 306 304 304 303 304 303 303 304 304 303 304 306 304 301 300 299 298 299 300
340 338 337 337 336 336 336 336 335 334 334 334 333 331 330 329 328 326 325 324 324 324 324 325 325 324 322 317 313 313 313 312 311 311 311 311 310 309 309 308 308 308 308 307 305 304 303 302 302 303 303 303 303 302 302 306 306 303 302 301 299 299 299
339 338 337 337 336 335 335 335 334 334 333 332 331 330 329 328 327 326 324 324 324 324 324 325 324 324 322 317 313 313 313 311 311 311 311 310 309 309 310 309 307 306 307 306 304 304 303 300 300 303 303 302 302 302 302 305 306 304 303 303 302 301 301
338 337 337 336 335 334 334 334 334 333 333 333 332 330 329 327 326 325 325 324 324 323 323 324 324 323 321 317 313 312 312 312 311 311 310 310 309 309 309 308 306 304 304 304 303 304 301 296 297 303 303 301 302 302 302 305 305 303 303 304 304 303 303
338 337 336 336 335 334 334 335 334 333 333 333 332 330 328 326 326 327 325 323 322 322 321 322 323 323 321 317 313 311 312 312 310 310 310 309 309 309 308 308 307 304 303 302 303 304 301 295 295 301 303 301 302 302 302 303 304 302 301 302 303 304 303
337 337 336 335 335 334 334 334 334 332 332 332 331 329 327 326 326 326 324 322 321 320 319 318 320 321 320 317 313 311 311 310 309 309 309 309 309 309 308 309 308 305 302 302 303 303 303 298 294 296 301 303 302 301 301 301 301 301 300 300 302 303 303
337 336 336 335 335 334 333 333 333 332 331 330 329 328 326 326 325 323 321 320 320 319 318 316 317 319 319 317 313 311 310 309 307 308 309 309 309 309 309 309 308 305 303 303 304 303 303 302 298 296 299 301 301 300 302 301 300 300 300 300 301 302 302
Wind_Speed
23 21 21 21 21 21 20 21 20 21 22 22 21 19 19 18 16 16 16 16 15 14 14 14 14 14 14 14 15 15 14 14 14 13 12 12 12 12 12 12 11 10 10 10 10 9 5 4 8 11 12 12 12 12 11 10 10 10 9 9 9 8 8
21 21 20 21 21 22 22 22 22 22 23 23 22 20 19 19 17 16 16 16 15 15 15 14 14 15 15 15 15 16 15 14 14 14 12 12 12 12 11 12 12 11 12 12 12 11 9 7 4 7 10 11 11 12 12 10 10 10 10 10 9 8 7
22 22 21 21 23 23 23 24 23 23 23 23 22 21 20 20 18 17 17 17 16 16 15 15 14 15 16 17 16 16 16 15 14 14 13 13 13 12 11 12 12 12 12 11 11 11 11 10 6 6 10 12 9 11 13 12 11 10 10 10 9 8 8
24 23 22 23 24 24 24 24 24 23 24 24 23 22 21 20 19 19 18 17 17 17 16 15 15 15 16 17 16 16 16 15 14 13 14 14 13 13 13 14 13 12 12 11 11 11 10 10 7 7 9 10 9 10 13 13 12 12 11 10 10 9 8
26 25 24 24 24 25 25 24 24 23 23 24 24 23 22 21 21 20 19 18 17 17 17 16 15 15 15 15 15 14 14 13 13 13 13 14 14 14 14 15 14 13 14 14 12 11 11 10 9 8 9 8 7 7 11 12 12 12 11 10 10 9 8
27 26 25 25 26 26 26 25 25 25 25 25 26 25 23 21 21 21 21 19 17 17 17 16 15 15 14 13 13 13 12 13 13 14 14 14 14 15 14 14 14 14 15 15 14 13 11 11 11 11 10 6 6 6 9 12 12 11 11 10 10 9 8
28 27 26 27 27 27 27 26 26 27 27 26 25 26 24 22 23 22 20 19 18 17 17 17 16 15 14 13 12 12 13 13 14 14 16 14 14 15 14 14 14 14 15 14 14 13 12 12 12 11 9 6 7 7 8 11 11 11 10 10 10 8 7
28 28 28 28 27 27 28 26 26 28 28 24 23 24 24 24 24 22 20 20 19 18 18 18 16 15 15 13 12 12 12 13 13 14 15 14 14 14 15 15 14 14 14 14 14 14 13 14 13 12 10 7 6 7 7 9 10 11 10 9 9 8 8
27 28 29 29 27 27 28 26 27 29 27 23 23 24 24 25 25 23 20 21 20 19 19 18 17 16 15 14 13 12 12 11 12 13 13 13 14 15 15 16 15 14 14 15 15 14 14 14 12 11 11 10 7 5 6 7 8 9 10 10 9 8 8
29 28 29 29 28 28 29 27 27 29 26 23 23 24 25 26 26 24 22 21 20 19 19 18 17 16 15 14 13 12 12 11 11 12 12 12 13 13 14 15 14 14 13 14 13 13 12 12 11 11 11 12 10 6 5 5 6 8 10 11 8 8 9
32 29 28 28 28 29 30 28 27 28 26 24 24 25 26 26 26 25 23 22 20 19 19 19 18 17 15 14 13 12 11 11 11 11 11 11 11 11 12 12 13 12 11 11 10 9 10 10 11 11 11 12 11 9 7 5 5 7 9 10 8 6 8
34 30 27 27 28 30 31 30 28 27 26 25 25 26 26 25 26 25 23 22 21 20 20 20 18 17 16 14 13 12 12 12 11 11 11 11 11 11 11 11 12 10 9 8 8 8 8 9 10 11 11 11 10 10 9 7 5 6 7 9 8 6 7
34 31 30 28 28 30 30 30 29 28 27 27 27 27 26 26 26 25 24 22 22 21 21 20 18 17 16 15 14 13 12 12 12 11 11 11 11 11 11 12 11 10 8 8 7 7 8 8 9 10 10 10 10 9 9 9 6 5 6 7 8 7 7
35 32 31 29 30 30 30 30 31 30 30 30 29 27 25 25 25 25 24 23 22 22 21 20 19 18 17 15 14 13 12 13 12 11 11 12 12 12 12 12 11 9 8 8 8 7 8 8 9 9 9 9 10 10 10 11 7 6 7 7 7 7 7
34 32 32 32 33 30 28 31 32 31 32 31 29 27 25 24 24 24 24 23 22 22 21 21 20 20 18 16 15 14 13 13 13 12 12 12 12 12 12 11 11 9 9 9 8 7 7 7 8 8 8 9 9 10 10 10 8 7 8 8 8 7 7
32 33 33 34 35 30 28 32 33 32 33 32 28 26 25 24 24 24 23 23 23 22 21 21 22 21 19 17 17 16 14 13 13 13 12 13 13 13 12 12 11 10 10 9 9 8 7 7 7 7 8 8 8 8 9 8 7 6 8 9 9 8 7
32 34 33 34 34 30 28 32 34 33 33 30 27 26 24 24 25 25 24 23 23 22 22 21 23 22 20 19 18 16 14 13 13 14 13 14 14 14 14 13 12 12 11 11 10 9 8 8 7 7 7 6 6 5 5 6 6 6 7 9 9 8 7
34 34 35 35 33 31 30 30 32 35 33 29 27 26 25 24 25 25 25 24 23 23 23 23 23 22 20 20 18 15 15 14 14 14 14 15 15 15 15 14 13 13 13 12 11 10 9 9 7 7 7 6 6 6 5 6 6 6 7 8 8 7 7
36 35 35 34 33 33 33 31 33 35 33 29 27 26 26 25 25 25 25 25 24 23 23 23 24 23 23 22 19 16 15 15 14 15 15 15 16 15 15 14 14 14 14 13 12 11 10 10 8 8 8 8 9 9 8 8 7 7 7 8 8 8 7
37 36 35 34 33 35 35 34 35 36 32 29 27 27 27 26 25 26 25 24 24 24 23 23 23 24 24 22 19 17 16 16 15 15 15 15 15 15 15 14 14 15 15 14 13 12 11 10 9 9 9 10 12 13 11 9 8 8 8 8 8 7 7
37 35 35 35 34 35 35 34 35 35 32 30 28 28 28 27 26 26 24 25 25 23 24 24 24 26 25 22 20 18 17 17 16 16 15 15 15 15 15 14 14 15 15 14 14 13 12 11 10 10 10 11 12 12 10 9 9 9 8 8 7 7 7
35 34 35 35 34 35 36 34 34 34 32 30 28 27 28 27 27 26 24 25 25 24 26 28 29 29 26 21 20 19 17 17 17 16 16 15 15 15 15 14 14 15 16 16 16 14 14 13 11 11 11 12 13 12 11 10 10 9 8 8 7 7 7
34 34 34 33 34 36 37 36 36 34 32 30 27 26 27 27 27 28 26 25 25 27 31 33 32 32 29 24 21 18 17 17 17 16 16 16 16 15 15 14 14 17 18 18 17 15 14 14 13 11 12 13 13 12 11 11 10 9 9 8 7 7 7
34 35 33 32 34 36 37 37 37 34 31 31 27 25 27 27 27 28 27 26 28 32 35 35 32 32 32 28 23 19 17 17 17 17 17 17 16 16 16 14 14 18 20 17 16 15 13 13 14 13 14 15 14 13 11 10 10 9 8 8 7 7 7
34 35 32 31 32 35 37 38 37 34 32 32 29 26 27 26 26 28 28 27 31 35 36 36 34 33 33 31 25 20 18 18 18 18 18 17 17 16 17 15 15 17 18 17 17 16 15 14 14 14 15 16 17 16 14 12 10 9 8 7 7 7 6
34 34 30 28 32 37 39 39 37 34 32 32 29 26 26 26 26 29 30 30 32 35 36 36 35 34 34 33 28 22 19 19 20 19 19 19 18 18 18 17 16 16 17 19 18 16 16 16 15 15 15 16 18 17 16 14 13 11 9 6 7 7 6
32 32 29 28 34 40 40 39 37 34 31 30 29 27 26 26 26 29 32 32 32 33 35 37 36 35 35 34 30 24 20 20 21 20 20 20 19 19 19 18 17 16 17 20 19 17 17 17 17 17 16 16 16 16 17 16 15 15 12 8 6 7 7
32 32 32 32 37 41 39 39 38 34 32 30 28 27 26 26 29 32 33 34 32 31 34 37 36 36 36 34 31 26 20 20 21 20 21 21 20 20 20 19 18 17 18 19 20 18 18 17 17 17 16 15 14 14 15 15 14 15 13 9 6 5 6
33 34 35 38 42 42 39 38 37 35 34 30 26 24 24 26 30 34 35 36 34 31 33 38 38 37 37 35 33 27 20 20 21 20 20 21 20 20 20 20 19 18 18 19 21 21 19 17 16 17 16 15 14 12 12 14 15 15 13 12 10 8 9
32 34 39 43 43 39 36 36 36 34 32 29 26 25 24 23 27 30 32 36 36 33 34 38 39 38 38 37 35 27 20 19 20 19 19 20 19 19 20 21 20 18 18 19 22 24 22 18 16 16 16 15 14 12 12 13 16 16 15 14 15 14 13
33 37 42 41 36 33 33 34 35 35 33 30 28 26 24 22 23 25 28 33 35 36 36 38 40 39 38 39 36 28 21 20 20 18 18 18 18 19 20 22 22 19 18 20 22 25 25 20 16 16 16 15 14 13 12 12 14 16 15 14 15 16 17
35 38 39 35 31 31 33 33 35 37 36 31 26 24 24 24 24 23 26 30 34 36 37 39 41 40 40 41 38 28 21 20 20 19 19 19 18 18 19 23 25 20 18 20 22 24 25 21 16 15 16 15 14 14 13 12 12 13 14 14 14 15 17
36 36 33 30 28 28 29 31 35 37 33 27 24 24 25 26 25 23 22 27 32 35 37 41 42 42 41 42 39 29 22 21 21 21 20 19 19 19 18 21 26 24 20 21 22 22 22 22 18 15 15 15 13 13 13 12 12 12 12 12 12 13 14
36 33 29 27 26 27 31 32 33 32 29 26 25 25 26 26 26 23 21 24 30 34 37 42 43 43 42 43 41 33 23 21 21 20 19 19 19 19 19 19 24 27 25 22 22 21 21 22 20 16 14 14 13 12 12 11 12 13 11 11 11 12 13
32 30 29 27 26 31 34 34 31 28 28 29 27 25 25 24 25 25 22 24 29 31 33 39 43 45 44 43 43 37 26 21 22 22 19 19 19 18 19 18 20 26 27 23 23 21 20 22 23 17 13 14 14 14 12 9 9 11 12 11 11 12 13
31 30 30 29 31 33 31 31 32 28 26 28 28 25 23 24 25 25 22 22 26 27 27 33 40 44 44 43 43 40 31 25 25 24 20 19 18 17 18 17 18 24 26 24 23 22 19 21 24 20 14 15 16 15 12 9 8 10 11 12 13 13 13
32 33 31 31 35 35 29 28 31 28 24 25 26 23 22 23 24 24 22 21 23 22 23 30 38 42 44 43 43 41 36 30 29 26 20 17 18 16 16 18 19 22 25 24 23 22 19 19 22 21 18 17 18 15 12 10 9 10 11 12 13 13 13
Wind_Direction
200 202 203 205 207 206 202 199 199 203 206 206 207 207 208 209 207 209 210 209 209 209 207 206 205 203 201 199 201 205 207 208 208 210 211 201 205 217 216 225 237 243 250 248 257 269 262 230 200 196 205 204 205 210 214 218 209 198 197 203 207 203 205
199 202 202 204 207 204 201 200 200 203 204 204 206 207 209 208 207 210 212 210 210 209 207 206 204 203 202 200 203 207 209 212 212 215 218 211 215 221 212 218 230 233 239 243 250 257 262 266 218 187 194 194 202 209 209 213 206 196 197 203 208 204 202
197 200 201 203 204 202 201 199 199 201 203 202 203 208 210 208 208 211 211 211 211 209 207 206 203 202 204 204 207 210 212 216 218 220 226 224 223 225 220 222 226 228 234 238 241 243 247 253 252 223 191 184 204 206 199 205 202 198 201 202 205 208 208
192 195 199 201 200 201 200 198 198 200 201 201 202 207 211 209 209 211 211 211 211 209 208 206 202 201 204 206 210 214 216 222 224 224 230 233 232 229 226 226 227 228 232 234 235 235 237 239 249 251 213 205 226 206 191 199 200 200 204 201 206 209 207
191 191 196 200 198 198 199 197 198 198 199 202 202 207 211 209 210 212 212 211 210 210 208 205 203 201 203 207 211 216 220 226 231 231 232 232 234 233 228 228 230 232 234 237 239 234 235 239 243 254 248 239 236 196 179 188 194 200 203 199 205 206 207
192 190 194 200 201 200 199 199 198 197 201 203 203 207 210 208 210 212 211 209 208 209 207 205 204 201 202 206 212 219 224 228 230 231 231 229 228 229 230 230 232 235 235 236 241 239 236 240 242 251 259 245 218 191 175 186 194 196 200 200 202 203 207
193 193 197 201 203 203 203 201 199 200 204 204 205 208 209 208 210 211 211 208 206 206 206 204 202 200 203 208 215 221 225 228 228 226 227 226 225 227 228 230 231 234 236 235 238 239 234 235 241 248 250 229 216 210 190 195 197 191 197 200 201 204 202
194 194 197 202 203 202 204 203 199 202 205 205 208 209 208 207 208 210 209 206 204 204 204 202 199 200 204 208 216 221 222 224 222 220 221 221 222 223 224 228 231 233 235 234 233 234 233 235 240 242 236 219 213 209 204 207 200 199 203 191 194 204 198
195 193 194 199 201 200 203 203 199 203 206 207 210 210 207 207 207 207 206 205 205 203 202 200 198 200 203 206 212 215 212 211 211 212 215 218 220 222 223 226 229 232 233 232 230 231 233 235 237 235 227 219 220 213 207 211 207 207 197 179 189 199 197
200 195 191 193 195 196 201 203 200 204 208 207 208 208 206 206 207 204 202 203 203 201 200 200 200 201 201 201 204 206 203 202 204 206 210 215 218 219 221 223 225 230 230 227 226 226 227 229 230 230 225 223 230 229 216 213 213 208 190 187 201 195 195
205 200 192 187 190 194 199 201 200 203 206 205 205 206 204 204 204 203 201 201 201 199 199 199 199 199 197 196 199 201 198 197 200 205 209 213 214 213 215 216 217 221 220 217 217 216 217 221 223 226 228 227 230 233 238 238 213 196 187 197 212 193 187
208 205 197 188 187 194 198 198 199 203 203 201 203 205 203 201 201 199 200 200 198 197 198 198 196 194 193 192 193 196 195 195 200 205 207 208 209 209 208 207 208 209 205 201 203 205 209 215 217 222 227 227 230 232 238 252 229 180 174 190 200 187 178
210 208 202 193 190 195 198 197 199 203 202 199 202 205 201 198 196 194 194 196 195 195 196 196 194 192 192 191 192 196 196 197 202 206 205 203 202 203 202 201 202 200 194 192 197 201 206 213 217 222 226 224 227 226 227 244 240 160 153 176 178 178 181
210 208 204 199 195 195 195 197 199 201 202 200 200 202 197 193 193 191 191 193 192 192 193 194 193 192 192 192 192 197 196 197 203 204 201 199 197 197 196 197 196 191 189 191 196 201 203 210 213 218 223 218 219 218 214 229 229 155 143 164 169 175 185
208 207 202 200 200 195 192 197 200 200 202 202 199 198 195 191 191 191 191 192 191 191 191 192 194 193 192 192 191 194 195 197 201 200 197 194 192 191 190 192 190 184 185 190 194 198 196 198 202 207 213 211 213 213 208 219 222 177 158 169 175 178 183
207 206 202 202 204 196 191 198 201 199 202 203 198 197 194 191 191 189 190 191 190 190 190 191 195 196 193 191 192 194 194 196 199 197 195 193 189 186 186 188 187 180 181 186 189 191 187 187 193 196 199 203 207 207 204 216 223 192 168 169 178 182 182
207 207 204 206 206 198 193 198 200 200 203 202 197 194 192 191 191 189 190 191 188 189 188 190 196 197 194 194 194 193 193 195 198 197 195 192 188 186 186 187 185 182 182 185 185 185 183 182 186 186 183 188 190 180 180 206 224 201 172 168 177 184 180
207 205 205 208 207 201 197 197 197 199 202 201 194 189 188 190 191 189 190 190 188 188 188 191 195 193 194 197 195 192 193 194 196 196 194 191 188 186 187 186 184 183 182 184 184 184 183 181 179 177 174 168 154 139 156 194 206 193 177 171 170 172 178
206 205 207 208 205 201 199 196 196 199 202 201 192 185 187 190 190 191 191 190 189 188 189 193 194 192 197 199 194 190 191 192 193 194 191 189 188 187 187 186 184 183 183 183 183 181 178 176 173 169 164 154 144 149 176 196 190 182 181 175 168 172 185
207 205 206 207 204 201 200 198 198 199 201 200 191 184 187 189 190 192 191 189 190 190 190 190 191 194 197 196 191 188 189 189 190 191 189 188 188 187 186 186 184 184 185 184 182 178 174 173 173 168 160 154 157 168 184 189 179 179 181 175 175 181 187
207 204 204 205 204 201 199 197 198 198 200 200 192 185 186 188 190 192 190 189 190 189 188 187 190 196 196 191 189 188 187 187 187 187 188 187 187 185 185 185 185 185 186 184 180 176 174 172 170 169 166 164 169 177 184 183 179 182 183 183 187 187 185
205 202 201 203 203 201 199 197 197 197 199 200 194 186 185 187 189 189 187 189 189 188 191 194 197 199 195 187 188 188 186 187 185 184 185 185 185 184 184 184 186 186 186 184 182 178 179 179 172 172 176 175 176 182 185 184 185 186 187 190 192 190 192
204 201 199 200 200 199 198 197 197 197 198 200 194 185 183 186 188 188 187 185 186 192 199 202 204 205 199 191 188 186 185 185 184 183 183 184 184 183 184 183 185 189 189 188 188 186 188 187 177 176 181 179 181 186 186 186 189 189 189 194 195 195 200
204 201 198 199 199 197 195 195 196 196 196 199 195 185 182 184 185 187 185 184 190 199 204 205 207 208 204 197 188 183 183 183 183 184 184 184 183 182 183 181 182 191 193 192 190 190 191 189 184 184 187 183 183 186 187 189 189 188 192 198 197 200 207
202 199 197 197 197 195 194 194 195 195 195 197 196 187 182 183 184 186 186 187 196 203 206 207 208 208 205 200 192 184 182 181 182 184 185 186 184 182 182 180 180 187 190 189 187 188 190 191 191 193 193 191 191 189 187 188 185 183 196 208 202 202 210
199 196 194 195 195 194 194 194 193 193 193 195 194 188 183 182 184 188 191 194 200 204 206 207 208 206 204 202 196 189 183 181 182 183 185 186 185 183 181 178 178 180 185 188 187 186 190 192 194 195 193 195 200 199 195 192 186 182 190 210 214 208 208
196 192 191 192 193 194 194 193 192 192 191 192 192 190 185 182 185 191 195 198 200 202 205 208 207 206 204 202 198 193 185 183 184 184 185 186 185 183 181 179 178 179 183 188 187 185 187 190 193 194 190 191 200 206 204 200 197 193 191 197 215 214 207
193 191 193 193 193 194 193 191 192 192 191 190 192 192 187 184 190 196 198 199 200 200 204 208 207 205 204 202 198 193 186 184 186 185 185 185 184 183 182 181 181 182 182 186 189 188 186 185 186 187 187 188 194 202 207 206 207 206 201 203 216 219 211
192 191 192 192 191 192 191 192 193 192 192 191 191 192 191 189 194 200 200 201 200 199 204 209 208 205 204 201 197 192 185 184 186 185 184 184 182 182 182 182 184 186 185 187 191 190 185 182 182 182 184 189 192 196 204 210 213 210 205 206 208 210 213
191 190 191 190 189 190 190 191 191 189 190 191 190 191 194 191 192 195 198 200 201 199 203 210 209 204 202 200 195 189 183 184 186 185 185 185 182 182 183 184 185 187 187 189 195 195 189 184 183 184 185 188 191 195 201 213 221 218 212 210 208 211 217
189 187 189 188 187 188 189 190 191 191 192 193 191 191 193 194 191 190 192 197 200 199 204 210 208 203 202 200 194 187 183 185 185 184 185 185 185 185 185 186 187 187 187 193 201 201 196 192 189 189 189 187 190 197 200 208 218 219 218 219 218 220 225
188 187 189 188 185 187 189 188 191 194 193 192 189 188 192 197 195 190 191 197 200 200 204 209 207 203 201 199 194 188 185 184 183 184 185 184 185 187 185 187 190 187 188 198 204 202 200 199 193 191 191 189 192 200 202 202 204 207 211 215 221 226 228
189 188 188 186 182 183 185 185 188 190 191 190 188 188 192 195 193 189 191 199 201 200 205 209 206 202 201 199 194 190 186 186 185 183 183 182 183 185 184 187 193 193 193 201 203 201 202 200 191 190 193 193 196 200 200 202 203 199 202 208 215 223 226
190 189 185 182 180 182 184 185 185 185 187 188 189 192 195 195 194 195 197 202 202 200 204 208 204 200 200 199 195 191 187 187 184 180 181 184 184 187 185 183 192 198 200 203 201 200 204 199 189 188 196 198 200 199 194 200 204 200 203 210 214 220 223
187 186 182 179 179 183 186 187 185 183 186 190 190 192 192 190 193 198 202 207 206 202 204 208 204 199 198 198 197 193 189 186 182 178 182 188 187 189 188 182 189 198 201 203 201 200 204 200 192 191 199 203 203 199 193 199 202 201 208 215 218 222 224
183 182 181 179 179 182 184 186 186 184 185 188 188 187 187 187 189 192 194 202 204 198 199 206 204 199 197 197 198 197 193 190 187 182 182 188 190 191 187 182 188 196 197 198 200 201 204 202 199 198 201 205 207 202 199 206 209 206 211 216 221 226 227
182 182 181 180 182 184 184 186 187 185 183 184 184 183 184 185 187 188 188 194 198 193 194 202 203 200 198 197 198 199 198 196 192 188 186 191 194 189 182 182 190 196 195 195 198 201 203 204 204 204 205 208 211 207 206 213 213 210 212 217 221 227 228